H1 CPF 2 NER 2024 7 26 9 208 01 glonass106 H2 0705201 9106 32275 2024 7 26 0 0 0 2024 7 29 23 45 0 900 1 1 0 0 0 1 H9 10 0 60517 0.00000 0 -8317004.774 -15747807.088 -18259750.769 10 0 60517 900.00000 0 -6397430.865 -14352180.671 -20092766.909 10 0 60517 1800.00000 0 -4201004.623 -13009697.696 -21535525.521 10 0 60517 2700.00000 0 -1771532.249 -11774242.763 -22560069.540 10 0 60517 3600.00000 0 837111.741 -10691649.514 -23146566.246 10 0 60517 4500.00000 0 3562982.567 -9797815.455 -23283686.077 10 0 60517 5400.00000 0 6338402.783 -9117252.940 -22968817.115 10 0 60517 6300.00000 0 9092543.120 -8662136.085 -22208111.671 10 0 60517 7200.00000 0 11754140.167 -8431882.640 -21016364.392 10 0 60517 8100.00000 0 14254238.980 -8413287.474 -19416724.376 10 0 60517 9000.00000 0 16528847.615 -8581201.365 -17440246.752 10 0 60517 9900.00000 0 18521394.136 -8899726.023 -15125292.084 10 0 60517 10800.00000 0 20184884.703 -9323874.771 -12516784.826 10 0 60517 11700.00000 0 21483673.646 -9801628.752 -9665344.663 10 0 60517 12600.00000 0 22394772.310 -10276301.923 -6626307.172 10 0 60517 13500.00000 0 22908642.613 -10689114.989 -3458652.422 10 0 60517 14400.00000 0 23029442.633 -10981869.540 -223862.056 10 0 60517 15300.00000 0 22774714.390 -11099609.217 3015272.978 10 0 60517 16200.00000 0 22174527.341 -10993155.159 6195870.828 10 0 60517 17100.00000 0 21270113.939 -10621408.120 9256179.462 10 0 60517 18000.00000 0 20112054.916 -9953319.377 12136775.735 10 0 60517 18900.00000 0 18758090.841 -8969446.419 14781719.309 10 0 60517 19800.00000 0 17270652.138 -7663026.853 17139638.921 10 0 60517 20700.00000 0 15714211.459 -6040524.168 19164729.832 10 0 60517 21600.00000 0 14152569.625 -4121621.144 20817643.185 10 0 60517 22500.00000 0 12646188.960 -1938659.808 22066250.229 10 0 60517 23400.00000 0 11249685.664 464450.058 22886266.768 10 0 60517 24300.00000 0 10009586.113 3033809.658 23261725.962 10 0 60517 25200.00000 0 8962440.733 5707532.724 23185290.489 10 0 60517 26100.00000 0 8133374.158 8418087.715 22658397.984 10 0 60517 27000.00000 0 7535132.047 11094884.281 21691236.853 10 0 60517 27900.00000 0 7167664.167 13666997.339 20302552.591 10 0 60517 28800.00000 0 7018260.926 16065916.069 18519287.929 10 0 60517 29700.00000 0 7062237.294 18228203.913 16376063.265 10 0 60517 30600.00000 0 7264135.047 20097959.066 13914506.887 10 0 60517 31500.00000 0 7579392.345 21628972.957 11182447.571 10 0 60517 32400.00000 0 7956409.836 22786496.652 8232984.884 10 0 60517 33300.00000 0 8338925.525 23548541.364 5123455.170 10 0 60517 34200.00000 0 8668597.416 23906658.699 1914313.495 10 0 60517 35100.00000 0 8887683.929 23866168.184 -1332046.340 10 0 60517 36000.00000 0 8941707.830 23445822.944 -4552510.162 10 0 60517 36900.00000 0 8781989.995 22676928.153 -7684475.756 10 0 60517 37800.00000 0 8367944.909 21601950.118 -10667074.434 10 0 60517 38700.00000 0 7669039.889 20272675.288 -13442357.465 10 0 60517 39600.00000 0 6666334.456 18747997.489 -15956423.760 10 0 60517 40500.00000 0 5353534.113 17091427.158 -18160466.659 10 0 60517 41400.00000 0 3737513.405 15368427.781 -20011719.540 10 0 60517 42300.00000 0 1838285.624 13643691.690 -21474282.122 10 0 60517 43200.00000 0 -311580.287 11978469.465 -22519812.013 10 0 60517 44100.00000 0 -2668071.912 10428064.526 -23128068.742 10 0 60517 45000.00000 0 -5177328.913 9039597.213 -23287300.487 10 0 60517 45900.00000 0 -7777656.164 7850131.031 -22994466.690 10 0 60517 46800.00000 0 -10401871.565 6885238.373 -22255292.839 10 0 60517 47700.00000 0 -12979891.658 6158064.605 -21084156.721 10 0 60517 48600.00000 0 -15441448.474 5668928.495 -19503808.484 10 0 60517 49500.00000 0 -17718825.528 5405474.681 -17544929.825 10 0 60517 50400.00000 0 -19749499.962 5343370.821 -15245540.556 10 0 60517 51300.00000 0 -21478581.593 5447519.414 -12650263.619 10 0 60517 52200.00000 0 -22860947.876 5673732.749 -9809462.276 10 0 60517 53100.00000 0 -23862986.203 5970800.036 -6778265.761 10 0 60517 54000.00000 0 -24463871.158 6282859.247 -3615501.939 10 0 60517 54900.00000 0 -24656323.615 6551973.294 -382557.395 10 0 60517 55800.00000 0 -24446820.129 6720801.453 2857812.929 10 0 60517 56700.00000 0 -23855244.034 6735252.771 6042703.401 10 0 60517 57600.00000 0 -22913993.081 6547008.869 9110278.838 10 0 60517 58500.00000 0 -21666581.200 6115808.946 12000975.177 10 0 60517 59400.00000 0 -20165793.241 5411399.740 14658656.126 10 0 60517 60300.00000 0 -18471470.214 4415067.292 17031703.248 10 0 60517 61200.00000 0 -16648017.993 3120684.918 19074018.208 10 0 60517 62100.00000 0 -14761743.899 1535232.106 20745917.849 10 0 60517 63000.00000 0 -12878132.601 -321238.790 22014904.897 10 0 60517 63900.00000 0 -11059175.166 -2416188.050 22856299.552 10 0 60517 64800.00000 0 -9360862.681 -4705703.267 23253719.956 10 0 60517 65700.00000 0 -7830948.816 -7136098.059 23199402.367 10 0 60517 66600.00000 0 -6507074.463 -9645929.482 22694354.843 10 0 60517 67500.00000 0 -5415332.304 -12168351.258 21748341.364 10 0 60517 68400.00000 0 -4569330.857 -14633705.835 20379696.362 10 0 60517 69300.00000 0 -3969796.622 -16972248.063 18614972.842 10 0 60517 70200.00000 0 -3604730.471 -19116887.567 16488430.404 10 0 60517 71100.00000 0 -3450111.114 -21005835.739 14041372.523 10 0 60517 72000.00000 0 -3471115.493 -22585046.989 11321345.538 10 0 60517 72900.00000 0 -3623804.056 -23810352.141 8381214.546 10 0 60517 73800.00000 0 -3857199.116 -24649194.611 5278134.054 10 0 60517 74700.00000 0 -4115667.739 -25081896.454 2072433.555 10 0 60517 75600.00000 0 -4341507.544 -25102401.143 -1173559.944 10 0 60517 76500.00000 0 -4477625.077 -24718461.955 -4396738.971 10 0 60517 77400.00000 0 -4470192.417 -23951268.327 -7534447.800 10 0 60517 78300.00000 0 -4271168.593 -22834526.310 -10525705.139 10 0 60517 79200.00000 0 -3840578.216 -21413032.344 -13312392.847 10 0 60517 80100.00000 0 -3148450.110 -19740800.967 -15840387.039 10 0 60517 81000.00000 0 -2176333.319 -17878825.719 -18060609.334 10 0 60517 81900.00000 0 -918325.828 -15892567.720 -19929977.866 10 0 60517 82800.00000 0 618427.930 -13849277.595 -21412239.817 10 0 60517 83700.00000 0 2413792.346 -11815262.931 -22478669.884 10 0 60517 84600.00000 0 4435247.022 -9853215.346 -23108621.777 10 0 60517 85500.00000 0 6639019.598 -8019708.365 -23289922.829 10 0 60518 0.00000 0 8971698.228 -6362969.903 -23019104.773 10 0 60518 900.00000 0 11372258.548 -4921020.405 -22301466.615 10 0 60518 1800.00000 0 13774418.337 -3720255.363 -21150969.196 10 0 60518 2700.00000 0 16109226.852 -2774527.120 -19589963.159 10 0 60518 3600.00000 0 18307778.772 -2084765.329 -17648755.762 10 0 60518 4500.00000 0 20303941.673 -1639149.796 -15365024.585 10 0 60518 5400.00000 0 22036983.883 -1413827.530 -12783089.094 10 0 60518 6300.00000 0 23453993.637 -1374142.990 -9953053.658 10 0 60518 7200.00000 0 24511988.918 -1476329.056 -6929838.234 10 0 60518 8100.00000 0 25179630.078 -1669586.899 -3772115.131 10 0 60518 9000.00000 0 25438463.701 -1898466.572 -541172.205 10 0 60518 9900.00000 0 25283645.658 -2105447.407 2700275.469 10 0 60518 10800.00000 0 24724113.021 -2233608.752 5889302.362 10 0 60518 11700.00000 0 23782197.553 -2229277.775 8963993.929 10 0 60518 12600.00000 0 22492696.923 -2044541.847 11864648.728 10 0 60518 13500.00000 0 20901442.495 -1639518.758 14534937.711 10 0 60518 14400.00000 0 19063423.649 -984288.157 16922998.041 10 0 60518 15300.00000 0 17040547.116 -60401.861 18982440.110 10 0 60518 16200.00000 0 14899124.980 1138091.606 20673248.311 10 0 60518 17100.00000 0 12707196.201 2604152.514 21962558.235 10 0 60518 18000.00000 0 10531793.347 4317807.506 22825295.409 10 0 60518 18900.00000 0 8436268.298 6246758.223 23244663.435 10 0 60518 19800.00000 0 6477788.085 8347516.912 23212472.190 10 0 60518 20700.00000 0 4705104.879 10567022.903 22729299.764 10 0 60518 21600.00000 0 3156692.549 12844673.750 21804484.899 10 0 60518 22500.00000 0 1859327.005 15114687.373 20455949.760 10 0 60518 23400.00000 0 827168.941 17308697.526 18709856.071 10 0 60518 24300.00000 0 61386.678 19358474.911 16600100.764 10 0 60518 25200.00000 0 -449665.840 21198660.678 14167660.375 10 0 60518 26100.00000 0 -729724.139 22769398.167 11459796.462 10 0 60518 27000.00000 0 -813372.666 24018752.683 8529137.123 10 0 60518 27900.00000 0 -744341.752 24904817.703 5432652.355 10 0 60518 28800.00000 0 -573414.835 25397418.856 2230543.285 10 0 60518 29700.00000 0 -356035.350 25479343.845 -1014932.732 10 0 60518 30600.00000 0 -149715.512 25147046.443 -4240677.791 10 0 60518 31500.00000 0 -11357.671 24410794.868 -7383985.460 10 0 60518 32400.00000 0 5397.357 23294258.437 -10383764.505 10 0 60518 33300.00000 0 -147318.175 21833550.110 -13181729.833 10 0 60518 34200.00000 0 -509334.645 20075765.530 -15723536.976 10 0 60518 35100.00000 0 -1110524.424 18077080.338 -17959837.771 10 0 60518 36000.00000 0 -1969306.622 15900485.919 -19847236.779 10 0 60518 36900.00000 0 -3091640.799 13613258.726 -21349130.049 10 0 60518 37800.00000 0 -4470552.504 11284269.098 -22436410.508 10 0 60518 38700.00000 0 -6086211.109 8981241.842 -23088026.942 10 0 60518 39600.00000 0 -7906557.234 6768082.444 -23291386.442 10 0 60518 40500.00000 0 -9888454.116 4702379.657 -23042593.245 10 0 60518 41400.00000 0 -11979315.531 2833187.506 -22346519.917 10 0 60518 42300.00000 0 -14119143.023 1199177.998 -21216709.908 10 0 60518 43200.00000 0 -16242888.231 -172759.871 -19675113.528 10 0 60518 44100.00000 0 -18283042.589 -1268417.727 -17751662.385 10 0 60518 45000.00000 0 -20172347.048 -2086625.944 -15483690.281 10 0 60518 45900.00000 0 -21846509.396 -2639058.610 -12915211.373 10 0 60518 46800.00000 0 -23246816.178 -2949494.662 -10096069.103 10 0 60518 47700.00000 0 -24322530.348 -3052567.204 -7080971.950 10 0 60518 48600.00000 0 -25032974.538 -2992054.445 -3928434.345 10 0 60518 49500.00000 0 -25349212.683 -2818784.944 -699642.999 10 0 60518 50400.00000 0 -25255259.398 -2588246.062 2542729.393 10 0 60518 51300.00000 0 -24748766.180 -2357997.141 5735740.015 10 0 60518 52200.00000 0 -23841155.349 -2184997.129 8817397.625 10 0 60518 53100.00000 0 -22557195.768 -2122960.119 11727866.111 10 0 60518 54000.00000 0 -20934037.814 -2219851.041 14410626.343 10 0 60518 54900.00000 0 -19019747.682 -2515627.886 16813573.655 10 0 60518 55800.00000 0 -16871402.080 -3040326.459 18890029.544 10 0 60518 56700.00000 0 -14552822.662 -3812569.187 20599648.046 10 0 60518 57600.00000 0 -12132044.484 -4838561.723 21909199.366 10 0 60518 58500.00000 0 -9678623.800 -6111620.600 22793215.718 10 0 60518 59400.00000 0 -7260896.983 -7612252.919 23234487.122 10 0 60518 60300.00000 0 -4943304.315 -9308786.032 23224397.647 10 0 60518 61200.00000 0 -2783889.579 -11158522.071 22763095.634 10 0 60518 62100.00000 0 -832079.005 -13109370.284 21859494.488 10 0 60518 63000.00000 0 873168.550 -15101890.059 20531103.726 10 0 60518 63900.00000 0 2304763.715 -17071660.125 18803693.140 10 0 60518 64800.00000 0 3448383.201 -18951875.600 16710796.089 10 0 60518 65700.00000 0 4302824.201 -20676064.706 14293060.988 10 0 60518 66600.00000 0 4879802.550 -22180811.530 11597463.160 10 0 60518 67500.00000 0 5203204.037 -23408370.692 8676391.988 10 0 60518 68400.00000 0 5307821.302 -24309063.951 5586630.975 10 0 60518 69300.00000 0 5237630.550 -24843357.682 2388250.676 10 0 60518 70200.00000 0 5043681.893 -24983533.440 -856563.622 10 0 60518 71100.00000 0 4781693.524 -24714880.918 -4084726.166 10 0 60518 72000.00000 0 4509452.604 -24036362.732 -7233482.556 10 0 60518 72900.00000 0 4284133.873 -22960722.856 -10241634.471 10 0 60518 73800.00000 0 4159650.437 -21514034.072 -13050732.809 10 0 60518 74700.00000 0 4184149.678 -19734703.526 -15606215.477 10 0 60518 75600.00000 0 4397760.834 -17671978.305 -17858467.438 10 0 60518 76500.00000 0 4830689.969 -15384013.889 -19763782.430 10 0 60518 77400.00000 0 5501743.136 -12935586.484 -21285207.873 10 0 60518 78300.00000 0 6417340.285 -10395544.905 -22393257.089 10 0 60518 79200.00000 0 7571061.722 -7834108.158 -23066475.690 10 0 60518 80100.00000 0 8943746.526 -5320121.014 -23291851.838 10 0 60518 81000.00000 0 10504139.176 -2918381.160 -23065063.165 10 0 60518 81900.00000 0 12210057.836 -687148.262 -22390556.166 10 0 60518 82800.00000 0 14010035.962 1324062.555 -21281456.894 10 0 60518 83700.00000 0 15845369.290 3076312.260 -19759314.908 10 0 60518 84600.00000 0 17652483.276 4542619.641 -17853685.353 10 0 60518 85500.00000 0 19365522.731 5708836.984 -15601557.020 10 0 60519 0.00000 0 20919055.803 6573984.472 -13046637.348 10 0 60519 900.00000 0 22250780.474 7150031.025 -10238506.285 10 0 60519 1800.00000 0 23304118.506 7461130.840 -7231658.521 10 0 60519 2700.00000 0 24030591.091 7542350.226 -4084447.682 10 0 60519 3600.00000 0 24391874.410 7437937.944 -857956.092 10 0 60519 4500.00000 0 24361449.511 7199213.138 2385189.398 10 0 60519 5400.00000 0 23925776.752 6882160.463 5582032.238 10 0 60519 6300.00000 0 23084945.031 6544834.456 8670508.028 10 0 60519 7200.00000 0 21852768.006 6244683.259 11590649.375 10 0 60519 8100.00000 0 20256322.682 6035905.193 14285750.234 10 0 60519 9000.00000 0 18334949.085 5966950.314 16703466.970 10 0 60519 9900.00000 0 16138752.306 6078272.890 18796834.697 10 0 60519 10800.00000 0 13726668.993 6400430.215 20525179.234 10 0 60519 11700.00000 0 11164178.403 6952608.479 21854907.128 10 0 60519 12600.00000 0 8520752.982 7741638.561 22760158.595 10 0 60519 13500.00000 0 5867154.085 8761543.975 23223310.939 10 0 60519 14400.00000 0 3272684.815 9993640.950 23235322.825 10 0 60519 15300.00000 0 802513.706 11407187.499 22795912.771 10 0 60519 16200.00000 0 -1484820.065 12960555.335 21913568.276 10 0 60519 17100.00000 0 -3539616.784 14602876.585 20605385.162 10 0 60519 18000.00000 0 -5322850.252 16276097.187 18896739.798 10 0 60519 18900.00000 0 -6807550.037 17917351.722 16820800.081 10 0 60519 19800.00000 0 -7979674.998 19461560.599 14417884.109 10 0 60519 20700.00000 0 -8838442.333 20844140.919 11734678.523 10 0 60519 21600.00000 0 -9396099.224 22003717.155 8823331.367 10 0 60519 22500.00000 0 -9677147.670 22884717.530 5740436.917 10 0 60519 23400.00000 0 -9717056.091 23439746.387 2545932.347 10 0 60519 24300.00000 0 -9560513.130 23631632.170 -698071.970 10 0 60519 25200.00000 0 -9259298.477 23435064.163 -3928505.271 10 0 60519 26100.00000 0 -8869861.837 22837748.433 -7082567.972 10 0 60519 27000.00000 0 -8450713.509 21841033.877 -10098957.349 10 0 60519 27900.00000 0 -8059737.956 20459981.594 -12919062.793 10 0 60519 28800.00000 0 -7751544.873 18722874.502 -15488106.871 10 0 60519 29700.00000 0 -7574970.413 16670187.628 -17756209.702 10 0 60519 30600.00000 0 -7570834.645 14353062.234 -19679355.946 10 0 60519 31500.00000 0 -7770050.188 11831347.598 -21220245.856 10 0 60519 32400.00000 0 -8192161.944 9171292.197 -22349014.335 10 0 60519 33300.00000 0 -8844379.483 6442980.379 -23043804.711 10 0 60519 34200.00000 0 -9721142.838 3717620.916 -23291186.812 10 0 60519 35100.00000 0 -10804240.048 1064799.674 -23086411.944 10 0 60519 36000.00000 0 -12063471.702 -1450190.247 -22433500.446 10 0 60519 36900.00000 0 -13457834.939 -3768830.927 -21345160.526 10 0 60519 37800.00000 0 -14937177.703 -5841572.625 -19842540.160 10 0 60519 38700.00000 0 -16444254.464 -7629647.482 -17954816.823 10 0 60519 39600.00000 0 -17917097.839 -9106429.764 -15718632.764 10 0 60519 40500.00000 0 -19291607.267 -10258287.313 -13177386.396 10 0 60519 41400.00000 0 -20504246.674 -11084889.980 -10380393.065 10 0 60519 42300.00000 0 -21494738.281 -11598963.315 -7381931.025 10 0 60519 43200.00000 0 -22208639.653 -11825498.962 -4240190.770 10 0 60519 44100.00000 0 -22599695.705 -11800455.871 -1016147.783 10 0 60519 45000.00000 0 -22631866.605 -11569007.762 2227619.471 10 0 60519 45900.00000 0 -22280945.921 -11183411.362 5428143.355 10 0 60519 46800.00000 0 -21535700.450 -10700585.908 8523289.023 10 0 60519 47700.00000 0 -20398483.118 -10179506.505 11452960.568 10 0 60519 48600.00000 0 -18885292.461 -9678521.834 14160267.758 10 0 60519 49500.00000 0 -17025275.343 -9252709.775 16592630.620 10 0 60519 50400.00000 0 -14859692.893 -8951382.914 18702800.311 10 0 60519 51300.00000 0 -12440392.063 -8815849.489 20449776.568 10 0 60519 52200.00000 0 -9827845.801 -8877524.521 21799604.045 10 0 60519 53100.00000 0 -7088842.785 -9156471.155 22726032.309 10 0 60519 54000.00000 0 -4293922.173 -9660434.096 23211026.868 10 0 60519 54900.00000 0 -1514659.337 -10384406.434 23245121.482 10 0 60519 55800.00000 0 1179085.239 -11310748.780 22827604.947 10 0 60519 56700.00000 0 3721840.238 -12409856.509 21966538.634 10 0 60519 57600.00000 0 6055010.470 -13641347.925 20678604.136 10 0 60519 58500.00000 0 8129073.682 -14955724.265 18988783.600 10 0 60519 59400.00000 0 9905396.383 -16296432.485 16929878.407 10 0 60519 60300.00000 0 11357593.664 -17602244.732 14541875.009 10 0 60519 61200.00000 0 12472376.887 -18809854.737 11871169.768 10 0 60519 62100.00000 0 13249854.543 -19856581.946 8969667.499 10 0 60519 63000.00000 0 13703274.529 -20683069.383 5893771.082 10 0 60519 63900.00000 0 13858219.621 -21235861.103 2703281.891 10 0 60519 64800.00000 0 13751291.024 -21469750.035 -539767.234 10 0 60519 65700.00000 0 13428336.634 -21349796.486 -3772323.281 10 0 60519 66600.00000 0 12942299.901 -20852931.470 -6931544.320 10 0 60519 67500.00000 0 12350781.310 -19969076.573 -9956026.076 10 0 60519 68400.00000 0 11713416.560 -18701732.567 -12786999.265 10 0 60519 69300.00000 0 11089183.157 -17068011.499 -15369473.870 10 0 60519 70200.00000 0 10533749.954 -15098110.547 -17653307.783 10 0 60519 71100.00000 0 10096982.022 -12834249.382 -19594179.026 10 0 60519 72000.00000 0 9820706.400 -10329115.320 -21154442.853 10 0 60519 72900.00000 0 9736832.949 -7643880.984 -22303857.588 10 0 60519 73800.00000 0 9865909.305 -4845876.847 -23020165.739 10 0 60519 74700.00000 0 10216170.528 -2006015.165 -23289519.842 10 0 60519 75600.00000 0 10783123.138 803928.124 -23106745.494 10 0 60519 76500.00000 0 11549680.848 3514061.398 -22475437.085 10 0 60519 77400.00000 0 12486846.214 6059041.993 -21407884.783 10 0 60519 78300.00000 0 13554909.675 8380547.934 -19924834.420 10 0 60519 79200.00000 0 14705115.886 10429455.243 -18055084.883 10 0 60519 80100.00000 0 15881727.723 12167631.504 -15834930.600 10 0 60519 81000.00000 0 17024401.678 13569272.280 -13307459.571 10 0 60519 81900.00000 0 18070775.263 14621725.891 -10521720.073 10 0 60519 82800.00000 0 18959157.965 15325773.238 -7531771.782 10 0 60519 83700.00000 0 19631212.764 15695352.051 -4395639.357 10 0 60519 84600.00000 0 20034515.409 15756738.096 -1174188.467 10 0 60519 85500.00000 0 20124883.544 15547218.575 2070053.985 10 0 60520 0.00000 0 19868377.280 15113314.283 5274112.270 10 0 60520 900.00000 0 19242886.234 14508625.744 8375784.959 10 0 60520 1800.00000 0 18239235.930 13791395.228 11314850.521 10 0 60520 2700.00000 0 16861765.715 13021887.066 14034237.554 10 0 60520 3600.00000 0 15128353.176 12259697.596 16481132.523 10 0 60520 4500.00000 0 13069882.904 11561108.214 18608005.132 10 0 60520 5400.00000 0 10729180.771 10976593.329 20373531.203 10 0 60520 6300.00000 0 8159457.147 10548588.369 21743395.330 10 0 60520 7200.00000 0 5422322.998 10309611.994 22690957.861 10 0 60520 8100.00000 0 2585460.511 10280821.729 23197773.504 10 0 60520 9000.00000 0 -279955.785 10471064.035 23253951.644 10 0 60520 9900.00000 0 -3101981.003 10876459.102 22858351.382 10 0 60520 10800.00000 0 -5810652.658 11480538.258 22018607.447 10 0 60520 11700.00000 0 -8340660.555 12254928.697 20750986.171 10 0 60520 12600.00000 0 -10633823.388 13160557.279 19080073.934 10 0 60520 13500.00000 0 -12641269.611 14149323.282 17038303.613 10 0 60520 14400.00000 0 -14325232.282 15166170.101 14665327.656 10 0 60520 15300.00000 0 -15660383.511 16151468.934 12007249.521 10 0 60520 16200.00000 0 -16634653.358 17043614.063 9115728.004 10 0 60520 17100.00000 0 -17249499.552 17781720.096 6046971.723 10 0 60520 18000.00000 0 -17519617.463 18308306.981 2860643.374 10 0 60520 18900.00000 0 -17472103.449 18571858.829 -381304.577 10 0 60520 19800.00000 0 -17145107.759 18529147.757 -3615839.650 10 0 60520 20700.00000 0 -16586034.860 18147223.822 -6780080.272 10 0 60520 21600.00000 0 -15849368.233 17404986.216 -9812523.202 10 0 60520 22500.00000 0 -14994212.477 16294268.677 -12654242.917 10 0 60520 23400.00000 0 -14081657.486 14820392.703 -15250039.044 10 0 60520 24300.00000 0 -13172076.671 13002164.685 -17549509.228 10 0 60520 25200.00000 0 -12322473.760 10871316.556 -19508026.534 10 0 60520 26100.00000 0 -11583990.272 8471412.958 -21087602.592 10 0 60520 27000.00000 0 -10999678.644 5856270.199 -22257620.184 10 0 60520 27900.00000 0 -10602634.477 3087952.500 -22995421.707 10 0 60520 28800.00000 0 -10414566.021 234428.563 -23286742.786 10 0 60520 29700.00000 0 -10444860.473 -2633014.717 -23125983.350 10 0 60520 30600.00000 0 -10690185.784 -5442494.650 -22516311.541 10 0 60520 31500.00000 0 -11134644.188 -8124279.045 -21469598.850 10 0 60520 32400.00000 0 -11750470.713 -10613443.369 -20006187.987 10 0 60520 33300.00000 0 -12499247.087 -12852329.496 -18154497.964 10 0 60520 34200.00000 0 -13333580.080 -14792704.929 -15950473.826 10 0 60520 35100.00000 0 -14199173.783 -16397533.804 -13436891.375 10 0 60520 36000.00000 0 -15037208.891 -17642286.988 -10662529.862 10 0 60520 36900.00000 0 -15786929.014 -18515737.608 -7681228.323 10 0 60520 37800.00000 0 -16388325.228 -19020209.748 -4550843.430 10 0 60520 38700.00000 0 -16784805.780 -19171270.763 -1332128.822 10 0 60520 39600.00000 0 -16925738.239 -18996880.905 1912442.447 10 0 60520 40500.00000 0 -16768756.614 -18536036.674 5119889.488 10 0 60520 41400.00000 0 -16281735.632 -17836965.508 8227945.581 10 0 60520 42300.00000 0 -15444348.291 -16954948.314 11176266.666 10 0 60520 43200.00000 0 -14249140.205 -15949861.882 13907602.712 10 0 60520 44100.00000 0 -12702074.516 -14883544.990 16368909.121 10 0 60520 45000.00000 0 -10822523.334 -13817099.301 18512376.502 10 0 60520 45900.00000 0 -8642704.813 -12808238.762 20296358.923 10 0 60520 46800.00000 0 -6206588.123 -11908799.096 21686182.759 10 0 60520 47700.00000 0 -3568310.790 -11162512.077 22654820.632 10 0 60520 48600.00000 0 -790173.166 -10603138.145 23183417.552 10 0 60520 49500.00000 0 2059707.630 -10253035.757 23261659.220 10 0 60520 50400.00000 0 4909987.737 -10122227.633 22887975.358 10 0 60520 51300.00000 0 7688823.823 -10208003.161 22069574.001 10 0 60520 52200.00000 0 10326625.049 -10495073.815 20822305.846 10 0 60520 53100.00000 0 12758715.967 -10956275.222 19170360.828 10 0 60520 54000.00000 0 14927800.115 -11553786.551 17145802.342 10 0 60520 54900.00000 0 16786122.180 -12240816.034 14787947.572 10 0 60520 55800.00000 0 18297238.925 -12963681.701 12142605.480 10 0 60520 56700.00000 0 19437325.314 -13664199.486 9261186.935 10 0 60520 57600.00000 0 20195961.634 -14282277.701 6199704.043 10 0 60520 58500.00000 0 20576369.131 -14758607.836 3017678.273 10 0 60520 59400.00000 0 20595084.958 -15037337.375 -223021.089 10 0 60520 60300.00000 0 20281090.893 -15068610.877 -3459385.071 10 0 60520 61200.00000 0 19674433.417 -14810871.051 -6628495.497 10 0 60520 62100.00000 0 18824394.313 -14232821.685 -9668753.193 10 0 60520 63000.00000 0 17787289.897 -13314968.663 -12521079.325 10 0 60520 63900.00000 0 16623992.613 -12050673.234 -15130065.941 10 0 60520 64800.00000 0 15397280.300 -10446672.417 -17445053.009 10 0 60520 65700.00000 0 14169125.333 -8523043.960 -19421110.970 10 0 60520 66600.00000 0 12998038.143 -6312616.715 -21019909.876 10 0 60520 67500.00000 0 11936576.856 -3859850.531 -22210458.698 10 0 60520 68400.00000 0 11029127.437 -1219231.860 -22969701.095 10 0 60520 69300.00000 0 10310047.075 1546748.616 -23282956.758 10 0 60520 70200.00000 0 9802248.018 4369952.791 -23144200.527 10 0 60520 71100.00000 0 9516280.432 7179189.187 -22556174.462 10 0 60520 72000.00000 0 9449951.984 9902937.239 -21530331.145 10 0 60520 72900.00000 0 9588499.329 12472089.640 -20086609.559 10 0 60520 73800.00000 0 9905303.682 14822599.753 -18253047.860 10 0 60520 74700.00000 0 10363119.978 16897925.076 -16065240.380 10 0 60520 75600.00000 0 10915767.665 18651166.057 -13565649.032 10 0 60520 76500.00000 0 11510211.844 20046812.147 -10802782.012 10 0 60520 77400.00000 0 12088947.094 21062023.094 -7830255.331 10 0 60520 78300.00000 0 12592583.453 21687392.795 -4705754.989 10 0 60520 79200.00000 0 12962525.491 21927164.449 -1489919.637 10 0 60520 80100.00000 0 13143631.228 21798888.665 1754834.664 10 0 60520 81000.00000 0 13086738.433 21332539.433 4965524.831 10 0 60520 81900.00000 0 12750951.195 20569125.587 8079822.683 10 0 60520 82800.00000 0 12105589.669 19558856.526 11037264.516 10 0 60520 83700.00000 0 11131719.987 18358939.657 13780424.681 10 0 60520 84600.00000 0 9823198.862 17031102.410 16256030.311 10 0 60520 85500.00000 0 8187187.811 15638943.141 18415995.453 99